Location: Elende
(51.4317°N, 10.6316°E)
Time: 00:58:13
(UTC+00:00)

Cosmos 2227 - Pass Details

Date: 18 September 2020
Orbit: 836 x 859 km, 71.0° (Epoch: 23 October)

Event Time Altitude Azimuth Distance (km) Brightness Sun altitude
Rises 17:58:19 0° 196° (SSW) 3,420 7.4 -6.1°
Reaches altitude 10° 18:00:47 10° 192° (SSW) 2,486 6.7 -6.5°
Maximum altitude 18:06:24 61° 114° (ESE) 968 4.3 -7.4°
Drops below altitude 10° 18:12:02 10° 35° (NE) 2,490 6.4 -8.2°
Sets 18:14:30 0° 33° (NNE) 3,426 7.2 -8.6°
